Year,Month,Day,Hour,Minute,Value (Times are PST for temperature in C)
2015,05,21,00,00,15.50
2015,05,21,00,01,15.50
2015,05,21,00,02,15.60
2015,05,21,00,03,15.60
2015,05,21,00,04,15.60
2015,05,21,00,05,15.70
2015,05,21,00,06,15.70
2015,05,21,00,07,15.70
2015,05,21,00,08,15.70
2015,05,21,00,09,15.70
2015,05,21,00,10,15.60
2015,05,21,00,11,15.60
2015,05,21,00,12,15.60
2015,05,21,00,13,15.60
2015,05,21,00,14,15.60
2015,05,21,00,15,15.50
2015,05,21,00,16,15.50
2015,05,21,00,17,15.50
2015,05,21,00,18,15.50
2015,05,21,00,19,15.40
2015,05,21,00,20,15.40
2015,05,21,00,21,15.30
2015,05,21,00,22,15.30
2015,05,21,00,23,15.30
2015,05,21,00,24,15.30
2015,05,21,00,25,15.30
2015,05,21,00,26,15.30
2015,05,21,00,27,15.30
2015,05,21,00,28,15.30
2015,05,21,00,29,15.30
2015,05,21,00,30,15.30
2015,05,21,00,31,15.20
2015,05,21,00,32,15.20
2015,05,21,00,33,15.20
2015,05,21,00,34,15.20
2015,05,21,00,35,15.20
2015,05,21,00,36,15.20
2015,05,21,00,37,15.20
2015,05,21,00,38,15.20
2015,05,21,00,39,15.20
2015,05,21,00,40,15.20
2015,05,21,00,41,15.20
2015,05,21,00,42,15.20
2015,05,21,00,43,15.20
2015,05,21,00,44,15.10
2015,05,21,00,45,15.10
2015,05,21,00,46,15.10
2015,05,21,00,47,15.10
2015,05,21,00,48,15.10
2015,05,21,00,49,15.10
2015,05,21,00,50,15.00
2015,05,21,00,51,15.00
2015,05,21,00,52,15.00
2015,05,21,00,53,14.90
2015,05,21,00,54,14.90
2015,05,21,00,55,14.90
2015,05,21,00,56,14.80
2015,05,21,00,57,14.80
2015,05,21,00,58,14.80
2015,05,21,00,59,14.80
2015,05,21,01,00,14.80
2015,05,21,01,01,14.80
2015,05,21,01,02,14.80
2015,05,21,01,03,14.70
2015,05,21,01,04,14.70
2015,05,21,01,05,14.70
2015,05,21,01,06,14.70
2015,05,21,01,07,14.70
2015,05,21,01,08,14.70
2015,05,21,01,09,14.70
2015,05,21,01,10,14.70
2015,05,21,01,11,14.70
2015,05,21,01,12,14.70
2015,05,21,01,13,14.70
2015,05,21,01,14,14.70
2015,05,21,01,15,14.70
2015,05,21,01,16,14.60
2015,05,21,01,17,14.60
2015,05,21,01,18,14.60
2015,05,21,01,19,14.60
2015,05,21,01,20,14.60
2015,05,21,01,21,14.60
2015,05,21,01,22,14.60
2015,05,21,01,23,14.60
2015,05,21,01,24,14.60
2015,05,21,01,25,14.60
2015,05,21,01,26,14.60
2015,05,21,01,27,14.60
2015,05,21,01,28,14.60
2015,05,21,01,29,14.60
2015,05,21,01,30,14.50
2015,05,21,01,31,14.50
2015,05,21,01,32,14.50
2015,05,21,01,33,14.40
2015,05,21,01,34,14.40
2015,05,21,01,35,14.40
2015,05,21,01,36,14.30
2015,05,21,01,37,14.30
2015,05,21,01,38,14.20
2015,05,21,01,39,14.20
2015,05,21,01,40,14.20
2015,05,21,01,41,14.20
2015,05,21,01,42,14.20
2015,05,21,01,43,14.10
2015,05,21,01,44,14.10
2015,05,21,01,45,14.10
2015,05,21,01,46,14.10
2015,05,21,01,47,14.00
2015,05,21,01,48,14.00
2015,05,21,01,49,14.00
2015,05,21,01,50,14.00
2015,05,21,01,51,14.00
2015,05,21,01,52,14.00
2015,05,21,01,53,14.00
2015,05,21,01,54,14.00
2015,05,21,01,55,14.00
2015,05,21,01,56,14.00
2015,05,21,01,57,14.00
2015,05,21,01,58,14.00
2015,05,21,01,59,13.90
2015,05,21,02,00,13.90
2015,05,21,02,01,13.90
2015,05,21,02,02,13.90
2015,05,21,02,03,13.90
2015,05,21,02,04,13.80
2015,05,21,02,05,13.80
2015,05,21,02,06,13.80
2015,05,21,02,07,13.70
2015,05,21,02,08,13.70
2015,05,21,02,09,13.70
2015,05,21,02,10,13.70
2015,05,21,02,11,13.70
2015,05,21,02,12,13.70
2015,05,21,02,13,13.70
2015,05,21,02,14,13.70
2015,05,21,02,15,13.70
2015,05,21,02,16,13.60
2015,05,21,02,17,13.60
2015,05,21,02,18,13.60
2015,05,21,02,19,13.70
2015,05,21,02,20,13.70
2015,05,21,02,21,13.70
2015,05,21,02,22,13.70
2015,05,21,02,23,13.70
2015,05,21,02,24,13.70
2015,05,21,02,25,13.70
2015,05,21,02,26,13.70
2015,05,21,02,27,13.70
2015,05,21,02,28,13.70
2015,05,21,02,29,13.70
2015,05,21,02,30,13.70
2015,05,21,02,31,13.70
2015,05,21,02,32,13.70
2015,05,21,02,33,13.70
2015,05,21,02,34,13.70
2015,05,21,02,35,13.70
2015,05,21,02,36,13.70
2015,05,21,02,37,13.60
2015,05,21,02,38,13.60
2015,05,21,02,39,13.60
2015,05,21,02,40,13.60
2015,05,21,02,41,13.60
2015,05,21,02,42,13.60
2015,05,21,02,43,13.50
2015,05,21,02,44,13.50
2015,05,21,02,45,13.50
2015,05,21,02,46,13.50
2015,05,21,02,47,13.50
2015,05,21,02,48,13.50
2015,05,21,02,49,13.50
2015,05,21,02,50,13.50
2015,05,21,02,51,13.40
2015,05,21,02,52,13.40
2015,05,21,02,53,13.40
2015,05,21,02,54,13.40
2015,05,21,02,55,13.40
2015,05,21,02,56,13.40
2015,05,21,02,57,13.40
2015,05,21,02,58,13.40
2015,05,21,02,59,13.40
2015,05,21,03,00,13.40
2015,05,21,03,01,13.30
2015,05,21,03,02,13.30
2015,05,21,03,03,13.30
2015,05,21,03,04,13.30
2015,05,21,03,05,13.30
2015,05,21,03,06,13.30
2015,05,21,03,07,13.30
2015,05,21,03,08,13.30
2015,05,21,03,09,13.30
2015,05,21,03,10,13.30
2015,05,21,03,11,13.30
2015,05,21,03,12,13.30
2015,05,21,03,13,13.20
2015,05,21,03,14,13.20
2015,05,21,03,15,13.20
2015,05,21,03,16,13.20
2015,05,21,03,17,13.20
2015,05,21,03,18,13.20
2015,05,21,03,19,13.20
2015,05,21,03,20,13.20
2015,05,21,03,21,13.20
2015,05,21,03,22,13.20
2015,05,21,03,23,13.20
2015,05,21,03,24,13.20
2015,05,21,03,25,13.20
2015,05,21,03,26,13.10
2015,05,21,03,27,13.10
2015,05,21,03,28,13.10
2015,05,21,03,29,13.10
2015,05,21,03,30,13.10
2015,05,21,03,31,13.10
2015,05,21,03,32,13.10
2015,05,21,03,33,13.10
2015,05,21,03,34,13.10
2015,05,21,03,35,13.00
2015,05,21,03,36,13.00
2015,05,21,03,37,13.00
2015,05,21,03,38,13.00
2015,05,21,03,39,13.00
2015,05,21,03,40,12.90
2015,05,21,03,41,12.90
2015,05,21,03,42,12.90
2015,05,21,03,43,12.90
2015,05,21,03,44,12.90
2015,05,21,03,45,12.90
2015,05,21,03,46,12.90
2015,05,21,03,47,12.90
2015,05,21,03,48,12.90
2015,05,21,03,49,12.90
2015,05,21,03,50,12.90
2015,05,21,03,51,12.90
2015,05,21,03,52,12.90
2015,05,21,03,53,12.90
2015,05,21,03,54,12.90
2015,05,21,03,55,12.90
2015,05,21,03,56,12.80
2015,05,21,03,57,12.80
2015,05,21,03,58,12.80
2015,05,21,03,59,12.80
2015,05,21,04,00,12.80
2015,05,21,04,01,12.80
2015,05,21,04,02,12.80
2015,05,21,04,03,12.80
2015,05,21,04,04,12.70
2015,05,21,04,05,12.70
2015,05,21,04,06,12.70
2015,05,21,04,07,12.70
2015,05,21,04,08,12.60
2015,05,21,04,09,12.60
2015,05,21,04,10,12.60
2015,05,21,04,11,12.60
2015,05,21,04,12,12.60
2015,05,21,04,13,12.60
2015,05,21,04,14,12.60
2015,05,21,04,15,12.60
2015,05,21,04,16,12.60
2015,05,21,04,17,12.60
2015,05,21,04,18,12.60
2015,05,21,04,19,12.60
2015,05,21,04,20,12.60
2015,05,21,04,21,12.60
2015,05,21,04,22,12.60
2015,05,21,04,23,12.60
2015,05,21,04,24,12.60
2015,05,21,04,25,12.60
2015,05,21,04,26,12.50
2015,05,21,04,27,12.50
2015,05,21,04,28,12.50
2015,05,21,04,29,12.50
2015,05,21,04,30,12.50
2015,05,21,04,31,12.50
2015,05,21,04,32,12.40
2015,05,21,04,33,12.40
2015,05,21,04,34,12.40
2015,05,21,04,35,12.40
2015,05,21,04,36,12.40
2015,05,21,04,37,12.40
2015,05,21,04,38,12.30
2015,05,21,04,39,12.30
2015,05,21,04,40,12.30
2015,05,21,04,41,12.30
2015,05,21,04,42,12.30
2015,05,21,04,43,12.30
2015,05,21,04,44,12.30
2015,05,21,04,45,12.30
2015,05,21,04,46,12.20
2015,05,21,04,47,12.20
2015,05,21,04,48,12.30
2015,05,21,04,49,12.30
2015,05,21,04,50,12.30
2015,05,21,04,51,12.30
2015,05,21,04,52,12.30
2015,05,21,04,53,12.30
2015,05,21,04,54,12.30
2015,05,21,04,55,12.30
2015,05,21,04,56,12.30
2015,05,21,04,57,12.30
2015,05,21,04,58,12.20
2015,05,21,04,59,12.20
2015,05,21,05,00,12.20
2015,05,21,05,01,12.20
2015,05,21,05,02,12.20
2015,05,21,05,03,12.20
2015,05,21,05,04,12.20
2015,05,21,05,05,12.10
2015,05,21,05,06,12.10
2015,05,21,05,07,12.10
2015,05,21,05,08,12.10
2015,05,21,05,09,12.00
2015,05,21,05,10,12.00
2015,05,21,05,11,12.00
2015,05,21,05,12,12.00
2015,05,21,05,13,12.00
2015,05,21,05,14,12.00
2015,05,21,05,15,12.00
2015,05,21,05,16,11.90
2015,05,21,05,17,11.90
2015,05,21,05,18,11.90
2015,05,21,05,19,11.90
2015,05,21,05,20,11.90
2015,05,21,05,21,11.90
2015,05,21,05,22,11.90
2015,05,21,05,23,11.90
2015,05,21,05,24,11.90
2015,05,21,05,25,11.90
2015,05,21,05,26,11.90
2015,05,21,05,27,11.90
2015,05,21,05,28,11.90
2015,05,21,05,29,11.90
2015,05,21,05,30,11.90
2015,05,21,05,31,11.80
2015,05,21,05,32,11.80
2015,05,21,05,33,11.80
2015,05,21,05,34,11.80
2015,05,21,05,35,11.80
2015,05,21,05,36,11.80
2015,05,21,05,37,11.80
2015,05,21,05,38,11.80
2015,05,21,05,39,11.80
2015,05,21,05,40,11.80
2015,05,21,05,41,11.80
2015,05,21,05,42,11.80
2015,05,21,05,43,11.80
2015,05,21,05,44,11.80
2015,05,21,05,45,11.80
2015,05,21,05,46,11.80
2015,05,21,05,47,11.80
2015,05,21,05,48,11.80
2015,05,21,05,49,11.80
2015,05,21,05,50,11.80
2015,05,21,05,51,11.80
2015,05,21,05,52,11.80
2015,05,21,05,53,11.80
2015,05,21,05,54,11.80
2015,05,21,05,55,11.80
2015,05,21,05,56,11.80
2015,05,21,05,57,11.80
2015,05,21,05,58,11.80
2015,05,21,05,59,11.80
2015,05,21,06,00,11.80
2015,05,21,06,01,11.80
2015,05,21,06,02,11.80
2015,05,21,06,03,11.80
2015,05,21,06,04,11.80
2015,05,21,06,05,11.80
2015,05,21,06,06,11.80
2015,05,21,06,07,11.80
2015,05,21,06,08,11.80
2015,05,21,06,09,11.80
2015,05,21,06,10,11.80
2015,05,21,06,11,11.80
2015,05,21,06,12,11.80
2015,05,21,06,13,11.80
2015,05,21,06,14,11.80
2015,05,21,06,15,11.80
2015,05,21,06,16,11.80
2015,05,21,06,17,11.80
2015,05,21,06,18,11.80
2015,05,21,06,19,11.80
2015,05,21,06,20,11.80
2015,05,21,06,21,11.80
2015,05,21,06,22,11.80
2015,05,21,06,23,11.80
2015,05,21,06,24,11.80
2015,05,21,06,25,11.90
2015,05,21,06,26,11.90
2015,05,21,06,27,11.90
2015,05,21,06,28,11.90
2015,05,21,06,29,12.00
2015,05,21,06,30,12.00
2015,05,21,06,31,12.00
2015,05,21,06,32,12.00
2015,05,21,06,33,12.00
2015,05,21,06,34,12.10
2015,05,21,06,35,12.10
2015,05,21,06,36,12.10
2015,05,21,06,37,12.10
2015,05,21,06,38,12.20
2015,05,21,06,39,12.20
2015,05,21,06,40,12.20
2015,05,21,06,41,12.30
2015,05,21,06,42,12.30
2015,05,21,06,43,12.30
2015,05,21,06,44,12.30
2015,05,21,06,45,12.40
2015,05,21,06,46,12.50
2015,05,21,06,47,12.50
2015,05,21,06,48,12.60
2015,05,21,06,49,12.60
2015,05,21,06,50,12.70
2015,05,21,06,51,12.70
2015,05,21,06,52,12.80
2015,05,21,06,53,12.80
2015,05,21,06,54,12.80
2015,05,21,06,55,12.90
2015,05,21,06,56,13.00
2015,05,21,06,57,13.00
2015,05,21,06,58,13.10
2015,05,21,06,59,13.10
2015,05,21,07,00,13.20
2015,05,21,07,01,13.20
2015,05,21,07,02,13.30
2015,05,21,07,03,13.30
2015,05,21,07,04,13.30
2015,05,21,07,05,13.40
2015,05,21,07,06,13.50
2015,05,21,07,07,13.50
2015,05,21,07,08,13.60
2015,05,21,07,09,13.60
2015,05,21,07,10,13.60
2015,05,21,07,11,13.70
2015,05,21,07,12,13.70
2015,05,21,07,13,13.70
2015,05,21,07,14,13.80
2015,05,21,07,15,13.90
2015,05,21,07,16,14.00
2015,05,21,07,17,14.00
2015,05,21,07,18,14.10
2015,05,21,07,19,14.20
2015,05,21,07,20,14.20
2015,05,21,07,21,14.40
2015,05,21,07,22,14.50
2015,05,21,07,23,14.50
2015,05,21,07,24,14.60
2015,05,21,07,25,14.70
2015,05,21,07,26,14.80
2015,05,21,07,27,14.80
2015,05,21,07,28,14.80
2015,05,21,07,29,14.90
2015,05,21,07,30,14.90
2015,05,21,07,31,15.00
2015,05,21,07,32,15.10
2015,05,21,07,33,15.10
2015,05,21,07,34,15.20
2015,05,21,07,35,15.20
2015,05,21,07,36,15.30
2015,05,21,07,37,15.40
2015,05,21,07,38,15.50
2015,05,21,07,39,15.50
2015,05,21,07,40,15.60
2015,05,21,07,41,15.70
2015,05,21,07,42,15.80
2015,05,21,07,43,15.90
2015,05,21,07,44,16.00
2015,05,21,07,45,16.10
2015,05,21,07,46,16.10
2015,05,21,07,47,16.10
2015,05,21,07,48,16.10
2015,05,21,07,49,16.20
2015,05,21,07,50,16.20
2015,05,21,07,51,16.30
2015,05,21,07,52,16.30
2015,05,21,07,53,16.40
2015,05,21,07,54,16.40
2015,05,21,07,55,16.50
2015,05,21,07,56,16.60
2015,05,21,07,57,16.60
2015,05,21,07,58,16.70
2015,05,21,07,59,16.70
2015,05,21,08,00,16.70
2015,05,21,08,01,16.80
2015,05,21,08,02,16.90
2015,05,21,08,03,16.90
2015,05,21,08,04,17.00
2015,05,21,08,05,17.00
2015,05,21,08,06,17.10
2015,05,21,08,07,17.20
2015,05,21,08,08,17.30
2015,05,21,08,09,17.40
2015,05,21,08,10,17.50
2015,05,21,08,11,17.50
2015,05,21,08,12,17.60
2015,05,21,08,13,17.60
2015,05,21,08,14,17.60
2015,05,21,08,15,17.60
2015,05,21,08,16,17.60
2015,05,21,08,17,17.70
2015,05,21,08,18,17.70
2015,05,21,08,19,17.70
2015,05,21,08,20,17.80
2015,05,21,08,21,17.90
2015,05,21,08,22,18.00
2015,05,21,08,23,18.20
2015,05,21,08,24,18.20
2015,05,21,08,25,18.40
2015,05,21,08,26,18.50
2015,05,21,08,27,18.50
2015,05,21,08,28,18.60
2015,05,21,08,29,18.70
2015,05,21,08,30,18.80
2015,05,21,08,31,18.90
2015,05,21,08,32,18.90
2015,05,21,08,33,18.90
2015,05,21,08,34,18.90
2015,05,21,08,35,18.90
2015,05,21,08,36,18.90
2015,05,21,08,37,18.90
2015,05,21,08,38,18.90
2015,05,21,08,39,19.00
2015,05,21,08,40,19.10
2015,05,21,08,41,19.10
2015,05,21,08,42,19.10
2015,05,21,08,43,19.20
2015,05,21,08,44,19.30
2015,05,21,08,45,19.40
2015,05,21,08,46,19.50
2015,05,21,08,47,19.50
2015,05,21,08,48,19.60
2015,05,21,08,49,19.60
2015,05,21,08,50,19.70
2015,05,21,08,51,19.80
2015,05,21,08,52,19.80
2015,05,21,08,53,19.90
2015,05,21,08,54,19.90
2015,05,21,08,55,20.10
2015,05,21,08,56,20.20
2015,05,21,08,57,20.30
2015,05,21,08,58,20.40
2015,05,21,08,59,20.30
2015,05,21,09,00,20.20
2015,05,21,09,01,20.20
2015,05,21,09,02,20.20
2015,05,21,09,03,20.20
2015,05,21,09,04,20.20
2015,05,21,09,05,20.30
2015,05,21,09,06,20.30
2015,05,21,09,07,20.30
2015,05,21,09,08,20.30
2015,05,21,09,09,20.30
2015,05,21,09,10,20.30
2015,05,21,09,11,20.40
2015,05,21,09,12,20.40
2015,05,21,09,13,20.40
2015,05,21,09,14,20.50
2015,05,21,09,15,20.50
2015,05,21,09,16,20.50
2015,05,21,09,17,20.50
2015,05,21,09,18,20.60
2015,05,21,09,19,20.50
2015,05,21,09,20,20.50
2015,05,21,09,21,20.50
2015,05,21,09,22,20.40
2015,05,21,09,23,20.30
2015,05,21,09,24,20.20
2015,05,21,09,25,20.20
2015,05,21,09,26,20.20
2015,05,21,09,27,20.20
2015,05,21,09,28,20.20
2015,05,21,09,29,20.20
2015,05,21,09,30,20.10
2015,05,21,09,31,20.10
2015,05,21,09,32,20.10
2015,05,21,09,33,20.10
2015,05,21,09,34,20.10
2015,05,21,09,35,20.10
2015,05,21,09,36,20.10
2015,05,21,09,37,20.10
2015,05,21,09,38,20.00
2015,05,21,09,39,19.80
2015,05,21,09,40,19.60
2015,05,21,09,41,19.50
2015,05,21,09,42,19.50
2015,05,21,09,43,19.50
2015,05,21,09,44,19.40
2015,05,21,09,45,19.40
2015,05,21,09,46,19.30
2015,05,21,09,47,19.30
2015,05,21,09,48,19.20
2015,05,21,09,49,19.30
2015,05,21,09,50,19.30
2015,05,21,09,51,19.40
2015,05,21,09,52,19.40
2015,05,21,09,53,19.40
2015,05,21,09,54,19.50
2015,05,21,09,55,19.40
2015,05,21,09,56,19.40
2015,05,21,09,57,19.40
2015,05,21,09,58,19.30
2015,05,21,09,59,19.30
2015,05,21,10,00,19.40
2015,05,21,10,01,19.40
2015,05,21,10,02,19.50
2015,05,21,10,03,19.60
2015,05,21,10,04,19.70
2015,05,21,10,05,19.90
2015,05,21,10,06,20.00
2015,05,21,10,07,20.20
2015,05,21,10,08,20.20
2015,05,21,10,09,20.20
2015,05,21,10,10,20.20
2015,05,21,10,11,20.20
2015,05,21,10,12,20.20
2015,05,21,10,13,20.30
2015,05,21,10,14,20.40
2015,05,21,10,15,20.50
2015,05,21,10,16,20.50
2015,05,21,10,17,20.50
2015,05,21,10,18,20.40
2015,05,21,10,19,20.30
2015,05,21,10,20,20.30
2015,05,21,10,21,20.30
2015,05,21,10,22,20.10
2015,05,21,10,23,19.80
2015,05,21,10,24,19.80
2015,05,21,10,25,19.80
2015,05,21,10,26,19.90
2015,05,21,10,27,20.00
2015,05,21,10,28,20.10
2015,05,21,10,29,20.20
2015,05,21,10,30,20.40
2015,05,21,10,31,20.50
2015,05,21,10,32,20.50
2015,05,21,10,33,20.60
2015,05,21,10,34,20.70
2015,05,21,10,35,20.80
2015,05,21,10,36,20.80
2015,05,21,10,37,20.90
2015,05,21,10,38,21.00
2015,05,21,10,39,21.10
2015,05,21,10,40,21.30
2015,05,21,10,41,21.40
2015,05,21,10,42,21.50
2015,05,21,10,43,21.60
2015,05,21,10,44,21.60
2015,05,21,10,45,21.70
2015,05,21,10,46,21.70
2015,05,21,10,47,21.80
2015,05,21,10,48,21.60
2015,05,21,10,49,21.50
2015,05,21,10,50,21.40
2015,05,21,10,51,21.30
2015,05,21,10,52,21.30
2015,05,21,10,53,21.20
2015,05,21,10,54,21.20
2015,05,21,10,55,21.30
2015,05,21,10,56,21.50
2015,05,21,10,57,21.60
2015,05,21,10,58,21.80
2015,05,21,10,59,21.90
2015,05,21,11,00,22.10
2015,05,21,11,01,22.00
2015,05,21,11,02,22.00
2015,05,21,11,03,22.00
2015,05,21,11,04,21.80
2015,05,21,11,05,21.60
2015,05,21,11,06,21.20
2015,05,21,11,07,21.00
2015,05,21,11,08,20.80
2015,05,21,11,09,20.60
2015,05,21,11,10,20.60
2015,05,21,11,11,20.70
2015,05,21,11,12,20.50
2015,05,21,11,13,20.50
2015,05,21,11,14,20.40
2015,05,21,11,15,20.40
2015,05,21,11,16,20.50
2015,05,21,11,17,20.50
2015,05,21,11,18,20.50
2015,05,21,11,19,20.50
2015,05,21,11,20,20.50
2015,05,21,11,21,20.50
2015,05,21,11,22,20.40
2015,05,21,11,23,20.30
2015,05,21,11,24,20.30
2015,05,21,11,25,20.40
2015,05,21,11,26,20.50
2015,05,21,11,27,20.50
2015,05,21,11,28,20.50
2015,05,21,11,29,20.50
2015,05,21,11,30,20.40
2015,05,21,11,31,20.30
2015,05,21,11,32,20.40
2015,05,21,11,33,20.50
2015,05,21,11,34,20.50
2015,05,21,11,35,20.60
2015,05,21,11,36,20.70
2015,05,21,11,37,20.80
2015,05,21,11,38,20.60
2015,05,21,11,39,20.70
2015,05,21,11,40,20.60
2015,05,21,11,41,20.50
2015,05,21,11,42,20.50
2015,05,21,11,43,20.60
2015,05,21,11,44,20.70
2015,05,21,11,45,20.80
2015,05,21,11,46,20.90
2015,05,21,11,47,21.00
2015,05,21,11,48,21.10
2015,05,21,11,49,21.00
2015,05,21,11,50,20.90
2015,05,21,11,51,20.90
2015,05,21,11,52,20.90
2015,05,21,11,53,20.80
2015,05,21,11,54,20.80
2015,05,21,11,55,20.80
2015,05,21,11,56,20.80
2015,05,21,11,57,20.80
2015,05,21,11,58,20.90
2015,05,21,11,59,21.00
2015,05,21,12,00,21.10
2015,05,21,12,01,21.20
2015,05,21,12,02,21.30
2015,05,21,12,03,21.40
2015,05,21,12,04,21.40
2015,05,21,12,05,21.40
2015,05,21,12,06,21.50
2015,05,21,12,07,21.60
2015,05,21,12,08,21.60
2015,05,21,12,09,21.60
2015,05,21,12,10,21.60
2015,05,21,12,11,21.70
2015,05,21,12,12,21.70
2015,05,21,12,13,21.70
2015,05,21,12,14,21.60
2015,05,21,12,15,21.40
2015,05,21,12,16,21.50
2015,05,21,12,17,21.60
2015,05,21,12,18,21.40
2015,05,21,12,19,21.30
2015,05,21,12,20,21.20
2015,05,21,12,21,21.30
2015,05,21,12,22,21.30
2015,05,21,12,23,21.20
2015,05,21,12,24,21.00
2015,05,21,12,25,20.90
2015,05,21,12,26,20.90
2015,05,21,12,27,20.90
2015,05,21,12,28,20.90
2015,05,21,12,29,20.90
2015,05,21,12,30,20.80
2015,05,21,12,31,20.80
2015,05,21,12,32,20.90
2015,05,21,12,33,21.00
2015,05,21,12,34,21.20
2015,05,21,12,35,21.30
2015,05,21,12,36,21.30
2015,05,21,12,37,21.30
2015,05,21,12,38,21.30
2015,05,21,12,39,21.20
2015,05,21,12,40,21.10
2015,05,21,12,41,21.10
2015,05,21,12,42,21.10
2015,05,21,12,43,21.10
2015,05,21,12,44,21.20
2015,05,21,12,45,21.30
2015,05,21,12,46,21.30
2015,05,21,12,47,21.30
2015,05,21,12,48,21.50
2015,05,21,12,49,21.60
2015,05,21,12,50,21.70
2015,05,21,12,51,21.80
2015,05,21,12,52,21.70
2015,05,21,12,53,21.70
2015,05,21,12,54,21.70
2015,05,21,12,55,21.70
2015,05,21,12,56,21.70
2015,05,21,12,57,21.70
2015,05,21,12,58,21.80
2015,05,21,12,59,21.90
2015,05,21,13,00,21.90
2015,05,21,13,01,21.80
2015,05,21,13,02,21.90
2015,05,21,13,03,21.90
2015,05,21,13,04,21.90
2015,05,21,13,05,21.90
2015,05,21,13,06,21.80
2015,05,21,13,07,21.90
2015,05,21,13,08,21.90
2015,05,21,13,09,21.90
2015,05,21,13,10,21.80
2015,05,21,13,11,21.60
2015,05,21,13,12,21.50
2015,05,21,13,13,21.60
2015,05,21,13,14,21.70
2015,05,21,13,15,21.90
2015,05,21,13,16,21.90
2015,05,21,13,17,22.00
2015,05,21,13,18,22.00
2015,05,21,13,19,22.00
2015,05,21,13,20,22.00
2015,05,21,13,21,21.90
2015,05,21,13,22,21.90
2015,05,21,13,23,22.00
2015,05,21,13,24,22.00
2015,05,21,13,25,22.10
2015,05,21,13,26,22.30
2015,05,21,13,27,22.40
2015,05,21,13,28,22.50
2015,05,21,13,29,22.60
2015,05,21,13,30,22.70
2015,05,21,13,31,22.90
2015,05,21,13,32,22.90
2015,05,21,13,33,22.90
2015,05,21,13,34,22.90
2015,05,21,13,35,23.00
2015,05,21,13,36,23.10
2015,05,21,13,37,23.10
2015,05,21,13,38,23.20
2015,05,21,13,39,23.30
2015,05,21,13,40,23.30
2015,05,21,13,41,23.30
2015,05,21,13,42,23.30
2015,05,21,13,43,23.30
2015,05,21,13,44,23.40
2015,05,21,13,45,23.60
2015,05,21,13,46,23.50
2015,05,21,13,47,23.60
2015,05,21,13,48,23.70
2015,05,21,13,49,23.60
2015,05,21,13,50,23.50
2015,05,21,13,51,23.30
2015,05,21,13,52,23.30
2015,05,21,13,53,23.20
2015,05,21,13,54,23.10
2015,05,21,13,55,22.90
2015,05,21,13,56,22.90
2015,05,21,13,57,23.00
2015,05,21,13,58,23.10
2015,05,21,13,59,23.10
2015,05,21,14,00,23.30
2015,05,21,14,01,23.40
2015,05,21,14,02,23.60
2015,05,21,14,03,23.70
2015,05,21,14,04,23.70
2015,05,21,14,05,23.70
2015,05,21,14,06,23.70
2015,05,21,14,07,23.60
2015,05,21,14,08,23.40
2015,05,21,14,09,23.30
2015,05,21,14,10,23.30
2015,05,21,14,11,23.10
2015,05,21,14,12,22.90
2015,05,21,14,13,22.80
2015,05,21,14,14,22.80
2015,05,21,14,15,22.80
2015,05,21,14,16,22.90
2015,05,21,14,17,22.90
2015,05,21,14,18,22.90
2015,05,21,14,19,22.90
2015,05,21,14,20,22.90
2015,05,21,14,21,22.90
2015,05,21,14,22,22.90
2015,05,21,14,23,22.80
2015,05,21,14,24,22.50
2015,05,21,14,25,22.30
2015,05,21,14,26,22.20
2015,05,21,14,27,22.10
2015,05,21,14,28,22.10
2015,05,21,14,29,22.10
2015,05,21,14,30,22.10
2015,05,21,14,31,22.00
2015,05,21,14,32,22.00
2015,05,21,14,33,22.00
2015,05,21,14,34,22.10
2015,05,21,14,35,22.10
2015,05,21,14,36,22.00
2015,05,21,14,37,22.00
2015,05,21,14,38,21.90
2015,05,21,14,39,21.60
2015,05,21,14,40,21.60
2015,05,21,14,41,21.70
2015,05,21,14,42,21.70
2015,05,21,14,43,21.80
2015,05,21,14,44,21.90
2015,05,21,14,45,21.90
2015,05,21,14,46,21.80
2015,05,21,14,47,21.80
2015,05,21,14,48,21.80
2015,05,21,14,49,21.80
2015,05,21,14,50,21.80
2015,05,21,14,51,21.90
2015,05,21,14,52,21.90
2015,05,21,14,53,21.90
2015,05,21,14,54,22.00
2015,05,21,14,55,22.00
2015,05,21,14,56,22.10
2015,05,21,14,57,22.20
2015,05,21,14,58,22.30
2015,05,21,14,59,22.40
2015,05,21,15,00,22.60
2015,05,21,15,01,22.70
2015,05,21,15,02,22.80
2015,05,21,15,03,22.90
2015,05,21,15,04,22.90
2015,05,21,15,05,22.90
2015,05,21,15,06,22.80
2015,05,21,15,07,22.90
2015,05,21,15,08,22.90
2015,05,21,15,09,22.90
2015,05,21,15,10,23.00
2015,05,21,15,11,23.10
2015,05,21,15,12,23.20
2015,05,21,15,13,23.30
2015,05,21,15,14,23.30
2015,05,21,15,15,23.40
2015,05,21,15,16,23.50
2015,05,21,15,17,23.70
2015,05,21,15,18,23.80
2015,05,21,15,19,24.00
2015,05,21,15,20,24.10
2015,05,21,15,21,24.20
2015,05,21,15,22,24.20
2015,05,21,15,23,24.30
2015,05,21,15,24,24.30
2015,05,21,15,25,24.30
2015,05,21,15,26,24.30
2015,05,21,15,27,24.30
2015,05,21,15,28,24.40
2015,05,21,15,29,24.40
2015,05,21,15,30,24.30
2015,05,21,15,31,24.40
2015,05,21,15,32,24.40
2015,05,21,15,33,24.40
2015,05,21,15,34,24.50
2015,05,21,15,35,24.50
2015,05,21,15,36,24.50
2015,05,21,15,37,24.60
2015,05,21,15,38,24.70
2015,05,21,15,39,24.80
2015,05,21,15,40,24.90
2015,05,21,15,41,25.00
2015,05,21,15,42,25.10
2015,05,21,15,43,25.10
2015,05,21,15,44,25.00
2015,05,21,15,45,24.90
2015,05,21,15,46,24.90
2015,05,21,15,47,24.80
2015,05,21,15,48,24.80
2015,05,21,15,49,24.80
2015,05,21,15,50,24.80
2015,05,21,15,51,24.80
2015,05,21,15,52,24.90
2015,05,21,15,53,24.90
2015,05,21,15,54,24.80
2015,05,21,15,55,24.80
2015,05,21,15,56,24.70
2015,05,21,15,57,24.60
2015,05,21,15,58,24.60
2015,05,21,15,59,24.50
2015,05,21,16,00,24.50
2015,05,21,16,01,24.30
2015,05,21,16,02,24.40
2015,05,21,16,03,24.40
2015,05,21,16,04,24.40
2015,05,21,16,05,24.40
2015,05,21,16,06,24.50
2015,05,21,16,07,24.50
2015,05,21,16,08,24.50
2015,05,21,16,09,24.50
2015,05,21,16,10,24.60
2015,05,21,16,11,24.70
2015,05,21,16,12,24.70
2015,05,21,16,13,24.80
2015,05,21,16,14,24.90
2015,05,21,16,15,24.80
2015,05,21,16,16,24.80
2015,05,21,16,17,24.90
2015,05,21,16,18,24.90
2015,05,21,16,19,24.90
2015,05,21,16,20,25.00
2015,05,21,16,21,25.00
2015,05,21,16,22,25.10
2015,05,21,16,23,25.10
2015,05,21,16,24,25.10
2015,05,21,16,25,25.10
2015,05,21,16,26,25.10
2015,05,21,16,27,25.10
2015,05,21,16,28,25.20
2015,05,21,16,29,25.20
2015,05,21,16,30,25.10
2015,05,21,16,31,25.10
2015,05,21,16,32,25.00
2015,05,21,16,33,24.90
2015,05,21,16,34,24.80
2015,05,21,16,35,24.80
2015,05,21,16,36,24.80
2015,05,21,16,37,24.80
2015,05,21,16,38,24.80
2015,05,21,16,39,24.80
2015,05,21,16,40,24.80
2015,05,21,16,41,24.80
2015,05,21,16,42,24.80
2015,05,21,16,43,24.80
2015,05,21,16,44,24.70
2015,05,21,16,45,24.70
2015,05,21,16,46,24.60
2015,05,21,16,47,24.50
2015,05,21,16,48,24.40
2015,05,21,16,49,24.30
2015,05,21,16,50,24.20
2015,05,21,16,51,24.10
2015,05,21,16,52,24.10
2015,05,21,16,53,23.90
2015,05,21,16,54,23.90
2015,05,21,16,55,23.80
2015,05,21,16,56,23.80
2015,05,21,16,57,23.80
2015,05,21,16,58,23.80
2015,05,21,16,59,23.80
2015,05,21,17,00,23.70
2015,05,21,17,01,23.70
2015,05,21,17,02,23.70
2015,05,21,17,03,23.60
2015,05,21,17,04,23.60
2015,05,21,17,05,23.60
2015,05,21,17,06,23.70
2015,05,21,17,07,23.70
2015,05,21,17,08,23.70
2015,05,21,17,09,23.60
2015,05,21,17,10,23.50
2015,05,21,17,11,23.40
2015,05,21,17,12,23.40
2015,05,21,17,13,23.40
2015,05,21,17,14,23.40
2015,05,21,17,15,23.40
2015,05,21,17,16,23.40
2015,05,21,17,17,23.40
2015,05,21,17,18,23.40
2015,05,21,17,19,23.30